User: anonymous   Login
Location: Vancouver
(49.2500°N, 123.1330°W)
Time: 00:06:16
(UTC-07:00)
Language:

Iridium 35 - Orbit

View from above orbital plane
View from above orbital plane
View from above satellite
View from above satellite

Ground track
Ground track

The orbit data is extracted from the following two-line orbital elements,

1 24966U 97056B   15117.03007611  .00000157  00000-0  49124-4 0  9994
2 24966 086.3927 285.6183 0002099 093.1751 266.9685 14.34210376920423
Epoch (UTC): 27 April 2015 00:43:18
Eccentricity: 0.0002099
inclination: 86.3927°
perigee height: 776 km
apogee height: 779 km
right ascension of ascending node: 285.6183°
argument of perigee: 93.1751°
revolutions per day: 14.34210376
mean anomaly at epoch: 266.9685°
orbit number at epoch: 92042

The dashed part of the orbit path shows where the satellite is in the earth's shadow,  

DLR